Tracking 35274 objects as of 10-Sep-2026
HD Live streaming from Space Station
objects crossing your sky now

SL-4 R/B


SL-4 R/B is no longer on orbit


NORAD ID: 18932
Int'l Code: 1988-015B
Launch date: March 10, 1988
Source: Commonwealth of Independent States (former USSR) (CIS)
Launch site: PLESETSK MISSILE AND SPACE COMPLEX (PKMTR)
Decay date: 1988-03-16

Note: This is a ROCKET BODY
Your satellite tracking list
Your tracking list is empty




NASA's NSSDC Master Catalog

Two Line Element Set (TLE):
1 18932U 88015  B 88076.05010323  .08620737 +90000-5 +58931-3 0  9994
2 18932 072.8417 315.9638 0025604 077.4038 283.1772 16.38138481000918
Source of the keplerian elements: AFSPC